Location: Asheville, NC
(35.6000°N, 82.5500°W)
Time: 00:22:45
(UTC-04:00)

Vanguard 1 Rocket - Pass Details

Date: 10 March 2018
Orbit: 653 x 4224 km, 34.3° (Epoch: 18 June)

Event Time Altitude Azimuth Distance (km) Brightness Sun altitude
Rises 00:57:19 0° 286° (WNW) 6,474 11.8 -58.3°
Reaches altitude 10° 01:01:03 10° 282° (WNW) 5,841 11.4 -58.2°
Enters shadow 01:04:39 20° 277° (W) 5,317 11.1 -58.0°
Maximum altitude 01:20:34 56° 211° (SSW) 4,493 - -57.2°
Exits shadow 01:42:51 15° 143° (SE) 6,785 11.6 -55.4°
Drops below altitude 10° 01:45:29 10° 141° (SE) 7,160 11.8 -55.1°
Sets 01:50:47 0° 137° (SE) 7,933 12.1 -54.6°
